sat.trackr.live / text

‹ back to catalog

KUIPER-00478

NORAD 68875 · 2026-095M

PAYLOAD ACTIVE UNKNOWN

§ Identity

Operator
Country
US
Launch date
2026-04-28
Launch site
AFETR
Launch vehicle
Mass (kg)
RCS (m²)

External: N2YO · Heavens-Above · Gunter

§ Orbital elements

Epoch: 2026-05-25T00:00:02.000160Z

Period
93.70 min
Inclination
51.8784°
Eccentricity
0.0007521
Mean motion
15.36836853 rev/d
Perigee alt
450.3 km
Apogee alt
460.6 km
Semi-major
6,833.6 km
B*
1.6349e-3
RAAN
354.6566°
Arg perigee
217.1350°
Mean anomaly
8.7471°
Rev number
410

§ Raw data

KUIPER-004781 68875U 26095M   26145.00002315  .00059913  00000+0  16349-2 0  99962 68875  51.8784 354.6566 0007521 217.1350   8.7471 15.36836853  4108

JSON: /api/v1/satellites/68875 · /tle

For live sub-satellite position, see the globe view (requires WebGL).

§ Visibility from observer

Set your observer location to see the next 7 days of passes ≥ 10°. The values pass through the URL so the page stays shareable.

No JS? Fill the form by hand. The geolocation button needs JavaScript.